Weather History for KADM - January, 2014

Change the Weather History Date:

Tuesday, January 28, 2014

  Actual Average Record
Temperature  
Mean Temperature 24 °F -  
Max Temperature 33 °F 51 °F 78 °F (2015)
Min Temperature 13 °F 32 °F 13 °F (2014)
Degree Days  
Heating Degree Days 42    
Moisture  
Dew Point 4 °F    
Average Humidity 50    
Maximum Humidity 87    
Minimum Humidity 28    
Precipitation  
Precipitation 0.00 in - - ()
Sea Level Pressure  
Sea Level Pressure 30.43 in    
Wind  
Wind Speed 12 mph (NNE)    
Max Wind Speed 20 mph    
Max Gust Speed 24 mph    
Visibility 10 miles    
Events Snow    
Averages and records for this station are not official NWS values.
T = Trace of Precipitation, MM = Missing Value Source: NWS Daily Summary

Daily Weather History Graph

Daily Weather History Graph

Search for Another Location

Airport or City:

Trip Planner

Search our weather history database for the weather conditions in past years. The results will help you decide how hot, cold, wet, or windy it might be!

Date:

Astronomy

Jan. 28, 2014 Rise Set
Actual Time 7:28 AM CST 5:54 PM CST
Civil Twilight 7:01 AM CST 6:20 PM CST
Nautical Twilight 6:31 AM CST 6:50 PM CST
Astronomical Twilight 6:01 AM CST 7:20 PM CST
Moon 5:09 AM CST (1/28) 3:47 PM CST (1/28)
Length of Visible Light 11h 19m
Length of Day
10h 25m
Waning Crescent, 7% of the Moon is Illuminated
Jan 28
Waning Crescent
Jan 30
New
Feb 6
First Quarter
Feb 14
Full
Feb 22
Last Quarter

Hourly Weather History & Observations

Time (CST) Temp. Windchill Dew Point Humidity Pressure Visibility Wind Dir Wind Speed Gust Speed Precip Events Conditions
12:15 AM 22.6 °F 9.6 °F 0.3 °F 38% 30.41 in 10.0 mi NNE 15.0 mph 18.4 mph N/A   Overcast
12:35 AM 22.6 °F 9.2 °F 0.3 °F 38% 30.42 in 10.0 mi NNE 16.1 mph 19.6 mph N/A   Mostly Cloudy
12:55 AM 22.3 °F 9.2 °F -0.8 °F 37% 30.41 in 10.0 mi NNE 15.0 mph 19.6 mph N/A   Mostly Cloudy
1:15 AM 22.1 °F 8.5 °F -0.6 °F 37% 30.42 in 10.0 mi NNE 16.1 mph 20.7 mph N/A   Mostly Cloudy
1:35 AM 21.9 °F 8.7 °F 0.5 °F 39% 30.41 in 10.0 mi NNE 15.0 mph 23.0 mph N/A   Mostly Cloudy
1:55 AM 21.7 °F 9.0 °F 3.9 °F 46% 30.41 in 10.0 mi NNE 13.8 mph 19.6 mph N/A   Mostly Cloudy
2:15 AM 21.6 °F 11.3 °F 3.0 °F 45% 30.41 in 10.0 mi NNE 9.2 mph - N/A   Mostly Cloudy
2:35 AM 21.7 °F 8.5 °F 1.0 °F 41% 30.41 in 10.0 mi NNE 15.0 mph 20.7 mph N/A   Mostly Cloudy
2:55 AM 21.7 °F 10.2 °F 0.5 °F 40% 30.41 in 10.0 mi NNE 11.5 mph - N/A   Scattered Clouds
3:15 AM 21.7 °F 8.0 °F -0.4 °F 38% 30.40 in 10.0 mi NNE 16.1 mph 20.7 mph N/A   Mostly Cloudy
3:35 AM 21.7 °F 8.5 °F -0.2 °F 38% 30.40 in 10.0 mi NNE 15.0 mph - N/A   Mostly Cloudy
3:55 AM 21.4 °F 7.1 °F -0.9 °F 38% 30.40 in 10.0 mi NNE 17.3 mph 23.0 mph N/A   Mostly Cloudy
4:15 AM 21.2 °F 7.3 °F -0.8 °F 38% 30.40 in 10.0 mi NNE 16.1 mph - N/A   Mostly Cloudy
4:35 AM 21.0 °F 8.1 °F -0.4 °F 39% 30.41 in 10.0 mi NNE 13.8 mph - N/A   Mostly Cloudy
4:55 AM 20.8 °F 5.5 °F -0.6 °F 39% 30.41 in 10.0 mi NNE 19.6 mph 23.0 mph N/A   Overcast
5:15 AM 20.8 °F 9.0 °F -0.4 °F 40% 30.42 in 10.0 mi NNE 11.5 mph 15.0 mph N/A   Mostly Cloudy
5:35 AM 20.7 °F 6.6 °F -0.4 °F 40% 30.43 in 10.0 mi NNE 16.1 mph 20.7 mph N/A   Mostly Cloudy
6:55 AM 19.4 °F 5.5 °F 3.2 °F 49% 30.45 in 10.0 mi NNE 15.0 mph - N/A   Mostly Cloudy
7:55 AM 17.6 °F 5.7 °F 10.4 °F 73% 30.49 in 10.0 mi North 10.4 mph - N/A   Mostly Cloudy
8:55 AM 19.4 °F 7.2 °F 12.2 °F 74% 30.51 in 7.0 mi North 11.5 mph - N/A Snow Light Snow
10:55 AM 24.8 °F 15.3 °F 14.0 °F 64% 30.53 in 10.0 mi NE 9.2 mph - N/A   Clear
11:55 AM 26.6 °F 21.2 °F 12.2 °F 55% 30.51 in 10.0 mi NNE 4.6 mph - N/A   Clear
12:55 PM 32.0 °F 28.7 °F 8.6 °F 38% 30.48 in 10.0 mi North 3.5 mph - N/A   Clear
1:55 PM 32.0 °F 24.8 °F 8.6 °F 38% 30.43 in 10.0 mi North 8.1 mph - N/A   Clear
2:55 PM 33.8 °F 25.8 °F 5.0 °F 30% 30.42 in 10.0 mi North 10.4 mph - N/A   Clear
3:55 PM 33.8 °F 23.5 °F 3.2 °F 28% 30.41 in 10.0 mi NW 16.1 mph 24.2 mph N/A   Clear
6:55 PM 26.6 °F 22.6 °F 3.2 °F 37% 30.42 in 10.0 mi NW 3.5 mph - N/A   Clear
7:55 PM 26.6 °F 22.6 °F 3.2 °F 37% 30.42 in 10.0 mi NW 3.5 mph - N/A   Clear
8:55 PM 17.6 °F 12.3 °F 6.8 °F 63% 30.43 in 10.0 mi NW 3.5 mph - N/A   Clear
9:55 PM 15.8 °F 10.2 °F 6.8 °F 68% 30.44 in 10.0 mi NW 3.5 mph - N/A   Clear
10:35 PM 14.9 °F - 9.1 °F 78% 30.44 in 10.0 mi Calm Calm - N/A   Clear
10:55 PM 15.8 °F - 9.1 °F 75% 30.43 in 10.0 mi Calm Calm - N/A   Clear
11:15 PM 14.0 °F - 9.5 °F 82% 30.43 in 10.0 mi Calm Calm - N/A   Clear
11:35 PM 14.4 °F - 11.1 °F 87% 30.43 in 10.0 mi Calm Calm - N/A   Clear
11:55 PM 13.1 °F - 9.7 °F 86% 30.43 in 10.0 mi Calm Calm - N/A   Clear